Terug naar catalogus

SL-14 DEB

ActiefPO
NORAD 45281·DEBRIS·🇷🇺 Russia

Gelanceerd Aug 15, 1991 vanaf Plesetsk Cosmodrome

Loading…

Volgende Passages (komende 24 uur)

TLE

VersSource: Space-Track

Epoch: Sep 14, 2026, 13:13 UTC

1 45281U 91056T   26257.55095814  .00003761  00000-0  32069-2 0  9999
2 45281  82.5638 300.8757 0146842  66.7805 294.8741 13.82106339327228

Volg SL-14 DEB in realtime met AllMySat

Download on the App Store